Погода в Копыле

Беларусь     53˚09′03″N   27˚05′26″E
темп.,
°C
ветер,
м/с
пор.,
м/с
влажн.,
%
обл.,
%
осадки,
мм/ч
давл.,
гПа
погр.,
м
5 декабря, сб
сб500:00+3˚юв91793100 0.0 1020613
03:00+2˚юв8169297 0.0 1021575
06:00+2˚юв8159396 0.0 1021530
09:00+2˚юв8149398 0.0 1022446
12:00+2˚юв8149297 0.0 1023526
15:00+3˚юв8149298 0.0 1024533
18:00+2˚юв8159298 0.0 1024529
21:00+1˚юв8149198 0.0 1026589
6 декабря, вс
вс600:00+1˚юв71391100 0.0 1026623
03:00+1˚юв71289100 0.0 1028630
06:00юв7148897 0.0 1028608
09:00−2˚юв8158979 0.0 1029493
12:00юв8157710 0.0 1029583
15:00юв815715 0.0 1029621
18:00−2˚юв816650 0.0 1030463
21:00−3˚юв816650 0.0 1030452
7 декабря, пн
пн700:00−4˚юв815660 0.0 1030487
03:00−4˚юв815690 0.0 1031536
06:00−4˚юв815710 0.0 1029558
09:00−5˚юв815710 0.0 1030545
12:00−4˚юв916640 0.0 1029555
15:00−3˚юв814570 0.0 1029622
18:00−4˚вюв716620 0.0 1028563
21:00−5˚юв817680 0.0 1028677
8 декабря, вт
вт800:00−5˚юв815720 0.0 1028609
03:00−5˚вюв8156813 0.0 1027526
06:00−5˚вюв8156651 0.0 1026539
09:00−6˚вюв8166826 0.0 1026571
12:00−5˚вюв814680 0.0 1026621
15:00−4˚вюв814670 0.0 1025644
18:00−5˚вюв714710 0.0 1025655
21:00−5˚юв7137616 0.0 1025631
9 декабря, ср
ср900:00−5˚юв6118095 0.0 1025528
03:00−5˚вюв6128289 0.0 1025506
06:00−4˚вюв6107796 0.0 1024436
09:00−4˚вюв6108198 0.0 1024426
12:00−3˚вюв5983100 0.0 1025394
15:00−3˚вюв51088100 0.1 1024396
18:00−3˚вюв61092100 0.1 1023354
21:00−4˚вюв71284100 0.1 1023506